Location: Austin
(30.3000°N, 97.7500°W)
Time: 12:10:51
(UTC-05:00)

SL-8 R/B - Pass Details

Date: 26 May 2023
Orbit: 654 x 665 km, 48.4° (Epoch: 31 May)

Event Time Altitude Azimuth Distance (km) Brightness Sun altitude
Rises 20:55:04 0° 316° (NW) 2,997 8.8 -6.6°
Reaches altitude 10° 20:57:30 10° 322° (NW) 2,082 7.5 -7.1°
Maximum altitude 21:02:08 47° 37° (NE) 872 4.3 -7.9°
Enters shadow 21:06:38 11° 111° (ESE) 2,025 5.5 -8.8°
